Flag for Ireland Weather past 2 weeks in Dublin, Ireland

Now
73 °F

Passing clouds.


Feels Like: 77 °F
Forecast: 59 / 73 °F
Wind: 14 mph from East

Location: Dublin Airport

Current Time: Jul 23, 2014 at 5:30:12 PM

Latest Report: Jul 23, 2014 at 5:00 PM


Visibility: N/A

Pressure: 30.12 "Hg

Humidity: 53%

Dew point: 55 °F

Location of DublinLocation

Historic Weather in Dublin — Graph

°F

Dublin temperature yesterday

Maximum temperature yesterday: 72 °F (at 11:00 AM)
Minimum temperature yesterday: 54 °F (at 4:00 AM)
Average temperature yesterday: 64 °F

Past Weeks' High & Low Weather Summary

 TemperatureHumidityPressure
High75 °F (Jul 23, 2:30 PM)100% (Jul 9, 5:00 AM)30.27 "Hg (Jul 9, 5:00 AM)
Low45 °F (Jul 9, 5:00 AM)46% (Jul 9, 5:30 PM)29.71 "Hg (Jul 14, 1:30 PM)
Average62 °F81%30.00 "Hg
* Reported Jul 8 4:00 PM — Jul 23 4:30 PM, Dublin, Weather by CustomWeather, © 2014

Note: Actual official high and low records may vary slightly from our data, if they occured in-between our weather recording intervals... More about our weather records

Advertising

Dublin weather history for previous 24 hours

 ConditionsComfort  
Time TempWeatherWind HumidityBarometerVisibility
4:30 PM
Jul 23
73 °FPassing clouds.12 mph57%30.15 "HgN/A
4:00 PM73 °FPassing clouds.10 mph57%30.15 "HgN/A
3:30 PM73 °FPassing clouds.10 mph61%30.15 "HgN/A
3:00 PM73 °FPassing clouds.10 mph61%30.15 "HgN/A
2:30 PM75 °FPassing clouds.12 mph54%30.15 "HgN/A
2:00 PM73 °FPassing clouds.10 mph53%30.15 "HgN/A
1:00 PM73 °FPassing clouds.10 mph57%30.18 "HgN/A
12:30 PM72 °FPassing clouds.12 mph57%30.18 "HgN/A
12:00 PM72 °FPassing clouds.12 mph65%30.18 "HgN/A
11:30 AM72 °FPassing clouds.12 mph65%30.18 "HgN/A
11:00 AM70 °FPassing clouds.10 mph73%30.18 "HgN/A
10:30 AM70 °FPassing clouds.9 mph73%30.18 "HgN/A
10:00 AM70 °FPassing clouds.9 mph73%30.18 "HgN/A
6:00 AM57 °FFog.6 mph100%30.21 "Hg1 mi
5:30 AM57 °FFog.6 mph100%30.21 "Hg1 mi
5:00 AM57 °FCool.6 mph100%30.21 "Hg1 mi
4:30 AM55 °FFog.7 mph100%30.21 "Hg3 mi
4:00 AM54 °FFog.7 mph100%30.21 "Hg4 mi
3:30 AM55 °FFog.5 mph100%30.21 "Hg4 mi
3:00 AM57 °FFog.7 mph100%30.21 "Hg4 mi
2:30 AM59 °FFog.6 mph94%30.21 "HgN/A
2:00 AM59 °FFog.7 mph100%30.21 "HgN/A
1:30 AM59 °FFog.8 mph100%30.24 "Hg1 mi
1:00 AM59 °FFog.8 mph100%30.24 "Hg1 mi
6:00 PM
Jul 22
66 °FBroken clouds.12 mph88%30.24 "HgN/A
5:30 PM68 °FPartly sunny.10 mph83%30.21 "HgN/A
5:00 PM66 °FPartly sunny.10 mph88%30.21 "HgN/A
Weather by CustomWeather, © 2014

See weather overviewHow to use our weather pages